Year,Month,Day,Hour,Minute,Value (Times are PST for temperature in C)
2010,06,23,00,00,15.30
2010,06,23,00,01,15.30
2010,06,23,00,02,15.30
2010,06,23,00,03,15.30
2010,06,23,00,04,15.30
2010,06,23,00,05,15.30
2010,06,23,00,06,15.30
2010,06,23,00,07,15.30
2010,06,23,00,08,15.30
2010,06,23,00,09,15.30
2010,06,23,00,10,15.30
2010,06,23,00,11,15.20
2010,06,23,00,12,15.20
2010,06,23,00,13,15.10
2010,06,23,00,14,15.10
2010,06,23,00,15,15.00
2010,06,23,00,16,15.00
2010,06,23,00,17,14.90
2010,06,23,00,18,14.80
2010,06,23,00,19,14.70
2010,06,23,00,20,14.70
2010,06,23,00,21,14.60
2010,06,23,00,22,14.60
2010,06,23,00,23,14.50
2010,06,23,00,24,14.50
2010,06,23,00,25,14.50
2010,06,23,00,26,14.40
2010,06,23,00,27,14.40
2010,06,23,00,28,14.40
2010,06,23,00,29,14.30
2010,06,23,00,30,14.30
2010,06,23,00,31,14.30
2010,06,23,00,32,14.20
2010,06,23,00,33,14.20
2010,06,23,00,34,14.20
2010,06,23,00,35,14.20
2010,06,23,00,36,14.20
2010,06,23,00,37,14.20
2010,06,23,00,38,14.20
2010,06,23,00,39,14.20
2010,06,23,00,40,14.10
2010,06,23,00,41,14.10
2010,06,23,00,42,14.10
2010,06,23,00,43,14.00
2010,06,23,00,44,14.00
2010,06,23,00,45,14.00
2010,06,23,00,46,14.00
2010,06,23,00,47,14.00
2010,06,23,00,48,14.00
2010,06,23,00,49,14.00
2010,06,23,00,50,14.00
2010,06,23,00,51,14.00
2010,06,23,00,52,14.00
2010,06,23,00,53,14.00
2010,06,23,00,54,14.00
2010,06,23,00,55,14.00
2010,06,23,00,56,14.00
2010,06,23,00,57,13.90
2010,06,23,00,58,13.90
2010,06,23,00,59,13.90
2010,06,23,01,00,13.90
2010,06,23,01,01,13.90
2010,06,23,01,02,13.90
2010,06,23,01,03,13.90
2010,06,23,01,04,13.90
2010,06,23,01,05,13.90
2010,06,23,01,06,13.90
2010,06,23,01,07,13.90
2010,06,23,01,08,13.90
2010,06,23,01,09,13.90
2010,06,23,01,10,13.90
2010,06,23,01,11,13.90
2010,06,23,01,12,13.90
2010,06,23,01,13,13.90
2010,06,23,01,14,13.90
2010,06,23,01,15,13.90
2010,06,23,01,16,13.90
2010,06,23,01,17,13.90
2010,06,23,01,18,13.90
2010,06,23,01,19,13.90
2010,06,23,01,20,13.90
2010,06,23,01,21,13.90
2010,06,23,01,22,13.90
2010,06,23,01,23,13.90
2010,06,23,01,24,13.90
2010,06,23,01,25,13.90
2010,06,23,01,26,13.90
2010,06,23,01,27,13.90
2010,06,23,01,28,13.90
2010,06,23,01,29,13.90
2010,06,23,01,30,13.90
2010,06,23,01,31,13.90
2010,06,23,01,32,13.90
2010,06,23,01,33,13.90
2010,06,23,01,34,13.90
2010,06,23,01,35,13.90
2010,06,23,01,36,13.90
2010,06,23,01,37,13.90
2010,06,23,01,38,13.90
2010,06,23,01,39,13.90
2010,06,23,01,40,13.90
2010,06,23,01,41,13.90
2010,06,23,01,42,13.90
2010,06,23,01,43,13.90
2010,06,23,01,44,13.90
2010,06,23,01,45,13.90
2010,06,23,01,46,13.90
2010,06,23,01,47,13.90
2010,06,23,01,48,13.90
2010,06,23,01,49,13.90
2010,06,23,01,50,13.90
2010,06,23,01,51,13.90
2010,06,23,01,52,13.90
2010,06,23,01,53,13.90
2010,06,23,01,54,13.90
2010,06,23,01,55,13.90
2010,06,23,01,56,13.90
2010,06,23,01,57,13.90
2010,06,23,01,58,13.90
2010,06,23,01,59,13.90
2010,06,23,02,00,13.90
2010,06,23,02,01,13.90
2010,06,23,02,02,13.90
2010,06,23,02,03,13.90
2010,06,23,02,04,13.90
2010,06,23,02,05,13.90
2010,06,23,02,06,14.00
2010,06,23,02,07,14.00
2010,06,23,02,08,14.00
2010,06,23,02,09,14.00
2010,06,23,02,10,14.00
2010,06,23,02,11,14.00
2010,06,23,02,12,14.00
2010,06,23,02,13,14.10
2010,06,23,02,14,14.10
2010,06,23,02,15,14.10
2010,06,23,02,16,14.10
2010,06,23,02,17,14.10
2010,06,23,02,18,14.10
2010,06,23,02,19,14.10
2010,06,23,02,20,14.10
2010,06,23,02,21,14.20
2010,06,23,02,22,14.20
2010,06,23,02,23,14.20
2010,06,23,02,24,14.20
2010,06,23,02,25,14.20
2010,06,23,02,26,14.20
2010,06,23,02,27,14.30
2010,06,23,02,28,14.30
2010,06,23,02,29,14.30
2010,06,23,02,30,14.40
2010,06,23,02,31,14.40
2010,06,23,02,32,14.40
2010,06,23,02,33,14.50
2010,06,23,02,34,14.50
2010,06,23,02,35,14.50
2010,06,23,02,36,14.50
2010,06,23,02,37,14.50
2010,06,23,02,38,14.50
2010,06,23,02,39,14.50
2010,06,23,02,40,14.60
2010,06,23,02,41,14.60
2010,06,23,02,42,14.60
2010,06,23,02,43,14.60
2010,06,23,02,44,14.60
2010,06,23,02,45,14.60
2010,06,23,02,46,14.60
2010,06,23,02,47,14.70
2010,06,23,02,48,14.70
2010,06,23,02,49,14.70
2010,06,23,02,50,14.70
2010,06,23,02,51,14.70
2010,06,23,02,52,14.70
2010,06,23,02,53,14.70
2010,06,23,02,54,14.70
2010,06,23,02,55,14.70
2010,06,23,02,56,14.70
2010,06,23,02,57,14.70
2010,06,23,02,58,14.70
2010,06,23,02,59,14.70
2010,06,23,03,00,14.70
2010,06,23,03,01,14.70
2010,06,23,03,02,14.70
2010,06,23,03,03,14.70
2010,06,23,03,04,14.70
2010,06,23,03,05,14.70
2010,06,23,03,06,14.70
2010,06,23,03,07,14.70
2010,06,23,03,08,14.70
2010,06,23,03,09,14.60
2010,06,23,03,10,14.60
2010,06,23,03,11,14.60
2010,06,23,03,12,14.60
2010,06,23,03,13,14.50
2010,06,23,03,14,14.50
2010,06,23,03,15,14.50
2010,06,23,03,16,14.50
2010,06,23,03,17,14.40
2010,06,23,03,18,14.40
2010,06,23,03,19,14.40
2010,06,23,03,20,14.40
2010,06,23,03,21,14.40
2010,06,23,03,22,14.40
2010,06,23,03,23,14.40
2010,06,23,03,24,14.40
2010,06,23,03,25,14.40
2010,06,23,03,26,14.40
2010,06,23,03,27,14.40
2010,06,23,03,28,14.40
2010,06,23,03,29,14.40
2010,06,23,03,30,14.40
2010,06,23,03,31,14.40
2010,06,23,03,32,14.30
2010,06,23,03,33,14.30
2010,06,23,03,34,14.30
2010,06,23,03,35,14.30
2010,06,23,03,36,14.30
2010,06,23,03,37,14.30
2010,06,23,03,38,14.30
2010,06,23,03,39,14.30
2010,06,23,03,40,14.30
2010,06,23,03,41,14.30
2010,06,23,03,42,14.30
2010,06,23,03,43,14.30
2010,06,23,03,44,14.40
2010,06,23,03,45,14.40
2010,06,23,03,46,14.30
2010,06,23,03,47,14.30
2010,06,23,03,48,14.30
2010,06,23,03,49,14.30
2010,06,23,03,50,14.30
2010,06,23,03,51,14.30
2010,06,23,03,52,14.20
2010,06,23,03,53,14.20
2010,06,23,03,54,14.20
2010,06,23,03,55,14.20
2010,06,23,03,56,14.20
2010,06,23,03,57,14.20
2010,06,23,03,58,14.20
2010,06,23,03,59,14.20
2010,06,23,04,00,14.10
2010,06,23,04,01,14.10
2010,06,23,04,02,14.10
2010,06,23,04,03,14.00
2010,06,23,04,04,14.00
2010,06,23,04,05,14.00
2010,06,23,04,06,14.00
2010,06,23,04,07,14.00
2010,06,23,04,08,13.90
2010,06,23,04,09,13.90
2010,06,23,04,10,13.90
2010,06,23,04,11,13.90
2010,06,23,04,12,13.90
2010,06,23,04,13,13.90
2010,06,23,04,14,13.80
2010,06,23,04,15,13.80
2010,06,23,04,16,13.80
2010,06,23,04,17,13.80
2010,06,23,04,18,13.80
2010,06,23,04,19,13.80
2010,06,23,04,20,13.80
2010,06,23,04,21,13.80
2010,06,23,04,22,13.80
2010,06,23,04,23,13.80
2010,06,23,04,24,13.80
2010,06,23,04,25,13.80
2010,06,23,04,26,13.80
2010,06,23,04,27,13.80
2010,06,23,04,28,13.80
2010,06,23,04,29,13.80
2010,06,23,04,30,13.80
2010,06,23,04,31,13.80
2010,06,23,04,32,13.80
2010,06,23,04,33,13.80
2010,06,23,04,34,13.80
2010,06,23,04,35,13.80
2010,06,23,04,36,13.80
2010,06,23,04,37,13.70
2010,06,23,04,38,13.70
2010,06,23,04,39,13.70
2010,06,23,04,40,13.70
2010,06,23,04,41,13.70
2010,06,23,04,42,13.70
2010,06,23,04,43,13.70
2010,06,23,04,44,13.70
2010,06,23,04,45,13.70
2010,06,23,04,46,13.70
2010,06,23,04,47,13.70
2010,06,23,04,48,13.70
2010,06,23,04,49,13.70
2010,06,23,04,50,13.60
2010,06,23,04,51,13.60
2010,06,23,04,52,13.60
2010,06,23,04,53,13.60
2010,06,23,04,54,13.60
2010,06,23,04,55,13.60
2010,06,23,04,56,13.60
2010,06,23,04,57,13.50
2010,06,23,04,58,13.50
2010,06,23,04,59,13.50
2010,06,23,05,00,13.50
2010,06,23,05,01,13.50
2010,06,23,05,02,13.50
2010,06,23,05,03,13.50
2010,06,23,05,04,13.50
2010,06,23,05,05,13.50
2010,06,23,05,06,13.50
2010,06,23,05,07,13.40
2010,06,23,05,08,13.40
2010,06,23,05,09,13.40
2010,06,23,05,10,13.40
2010,06,23,05,11,13.40
2010,06,23,05,12,13.40
2010,06,23,05,13,13.40
2010,06,23,05,14,13.40
2010,06,23,05,15,13.40
2010,06,23,05,16,13.40
2010,06,23,05,17,13.30
2010,06,23,05,18,13.30
2010,06,23,05,19,13.30
2010,06,23,05,20,13.30
2010,06,23,05,21,13.40
2010,06,23,05,22,13.40
2010,06,23,05,23,13.40
2010,06,23,05,24,13.40
2010,06,23,05,25,13.40
2010,06,23,05,26,13.40
2010,06,23,05,27,13.40
2010,06,23,05,28,13.40
2010,06,23,05,29,13.40
2010,06,23,05,30,13.40
2010,06,23,05,31,13.40
2010,06,23,05,32,13.40
2010,06,23,05,33,13.40
2010,06,23,05,34,13.30
2010,06,23,05,35,13.30
2010,06,23,05,36,13.30
2010,06,23,05,37,13.30
2010,06,23,05,38,13.30
2010,06,23,05,39,13.30
2010,06,23,05,40,13.30
2010,06,23,05,41,13.30
2010,06,23,05,42,13.30
2010,06,23,05,43,13.30
2010,06,23,05,44,13.40
2010,06,23,05,45,13.40
2010,06,23,05,46,13.40
2010,06,23,05,47,13.40
2010,06,23,05,48,13.40
2010,06,23,05,49,13.40
2010,06,23,05,50,13.40
2010,06,23,05,51,13.40
2010,06,23,05,52,13.40
2010,06,23,05,53,13.40
2010,06,23,05,54,13.40
2010,06,23,05,55,13.40
2010,06,23,05,56,13.50
2010,06,23,05,57,13.50
2010,06,23,05,58,13.50
2010,06,23,05,59,13.50
2010,06,23,06,00,13.50
2010,06,23,06,01,13.50
2010,06,23,06,02,13.50
2010,06,23,06,03,13.50
2010,06,23,06,04,13.50
2010,06,23,06,05,13.50
2010,06,23,06,06,13.50
2010,06,23,06,07,13.50
2010,06,23,06,08,13.50
2010,06,23,06,09,13.50
2010,06,23,06,10,13.50
2010,06,23,06,11,13.50
2010,06,23,06,12,13.50
2010,06,23,06,13,13.50
2010,06,23,06,14,13.50
2010,06,23,06,15,13.50
2010,06,23,06,16,13.50
2010,06,23,06,17,13.50
2010,06,23,06,18,13.50
2010,06,23,06,19,13.50
2010,06,23,06,20,13.50
2010,06,23,06,21,13.60
2010,06,23,06,22,13.60
2010,06,23,06,23,13.60
2010,06,23,06,24,13.60
2010,06,23,06,25,13.60
2010,06,23,06,26,13.60
2010,06,23,06,27,13.60
2010,06,23,06,28,13.60
2010,06,23,06,29,13.60
2010,06,23,06,30,13.60
2010,06,23,06,31,13.60
2010,06,23,06,32,13.70
2010,06,23,06,33,13.70
2010,06,23,06,34,13.70
2010,06,23,06,35,13.70
2010,06,23,06,36,13.70
2010,06,23,06,37,13.70
2010,06,23,06,38,13.70
2010,06,23,06,39,13.70
2010,06,23,06,40,13.70
2010,06,23,06,41,13.70
2010,06,23,06,42,13.70
2010,06,23,06,43,13.80
2010,06,23,06,44,13.80
2010,06,23,06,45,13.80
2010,06,23,06,46,13.80
2010,06,23,06,47,13.80
2010,06,23,06,48,13.90
2010,06,23,06,49,13.90
2010,06,23,06,50,13.90
2010,06,23,06,51,13.90
2010,06,23,06,52,14.00
2010,06,23,06,53,14.00
2010,06,23,06,54,14.00
2010,06,23,06,55,14.00
2010,06,23,06,56,14.00
2010,06,23,06,57,14.10
2010,06,23,06,58,14.10
2010,06,23,06,59,14.20
2010,06,23,07,00,14.20
2010,06,23,07,01,14.20
2010,06,23,07,02,14.20
2010,06,23,07,03,14.30
2010,06,23,07,04,14.40
2010,06,23,07,05,14.50
2010,06,23,07,06,14.50
2010,06,23,07,07,14.60
2010,06,23,07,08,14.70
2010,06,23,07,09,14.80
2010,06,23,07,10,14.80
2010,06,23,07,11,14.80
2010,06,23,07,12,14.90
2010,06,23,07,13,14.90
2010,06,23,07,14,15.00
2010,06,23,07,15,15.10
2010,06,23,07,16,15.10
2010,06,23,07,17,15.10
2010,06,23,07,18,15.20
2010,06,23,07,19,15.20
2010,06,23,07,20,15.30
2010,06,23,07,21,15.30
2010,06,23,07,22,15.30
2010,06,23,07,23,15.30
2010,06,23,07,24,15.40
2010,06,23,07,25,15.40
2010,06,23,07,26,15.40
2010,06,23,07,27,15.50
2010,06,23,07,28,15.50
2010,06,23,07,29,15.50
2010,06,23,07,30,15.60
2010,06,23,07,31,15.60
2010,06,23,07,32,15.60
2010,06,23,07,33,15.70
2010,06,23,07,34,15.70
2010,06,23,07,35,15.70
2010,06,23,07,36,15.70
2010,06,23,07,37,15.80
2010,06,23,07,38,15.80
2010,06,23,07,39,15.80
2010,06,23,07,40,15.90
2010,06,23,07,41,16.00
2010,06,23,07,42,16.10
2010,06,23,07,43,16.10
2010,06,23,07,44,16.10
2010,06,23,07,45,16.20
2010,06,23,07,46,16.20
2010,06,23,07,47,16.20
2010,06,23,07,48,16.20
2010,06,23,07,49,16.20
2010,06,23,07,50,16.30
2010,06,23,07,51,16.30
2010,06,23,07,52,16.40
2010,06,23,07,53,16.40
2010,06,23,07,54,16.40
2010,06,23,07,55,16.40
2010,06,23,07,56,16.40
2010,06,23,07,57,16.50
2010,06,23,07,58,16.60
2010,06,23,07,59,16.60
2010,06,23,08,00,16.70
2010,06,23,08,01,16.70
2010,06,23,08,02,16.70
2010,06,23,08,03,16.70
2010,06,23,08,04,16.70
2010,06,23,08,05,16.80
2010,06,23,08,06,16.80
2010,06,23,08,07,16.90
2010,06,23,08,08,16.90
2010,06,23,08,09,16.90
2010,06,23,08,10,17.00
2010,06,23,08,11,17.00
2010,06,23,08,12,17.00
2010,06,23,08,13,17.10
2010,06,23,08,14,17.10
2010,06,23,08,15,17.20
2010,06,23,08,16,17.20
2010,06,23,08,17,17.30
2010,06,23,08,18,17.30
2010,06,23,08,19,17.40
2010,06,23,08,20,17.50
2010,06,23,08,21,17.60
2010,06,23,08,22,17.60
2010,06,23,08,23,17.70
2010,06,23,08,24,17.80
2010,06,23,08,25,17.80
2010,06,23,08,26,17.90
2010,06,23,08,27,17.90
2010,06,23,08,28,17.90
2010,06,23,08,29,18.00
2010,06,23,08,30,18.10
2010,06,23,08,31,18.20
2010,06,23,08,32,18.20
2010,06,23,08,33,18.20
2010,06,23,08,34,18.20
2010,06,23,08,35,18.20
2010,06,23,08,36,18.10
2010,06,23,08,37,18.10
2010,06,23,08,38,18.10
2010,06,23,08,39,18.20
2010,06,23,08,40,18.10
2010,06,23,08,41,17.90
2010,06,23,08,42,17.80
2010,06,23,08,43,17.70
2010,06,23,08,44,17.50
2010,06,23,08,45,17.50
2010,06,23,08,46,17.40
2010,06,23,08,47,17.40
2010,06,23,08,48,17.40
2010,06,23,08,49,17.40
2010,06,23,08,50,17.30
2010,06,23,08,51,17.30
2010,06,23,08,52,17.20
2010,06,23,08,53,17.20
2010,06,23,08,54,17.10
2010,06,23,08,55,17.10
2010,06,23,08,56,17.00
2010,06,23,08,57,16.90
2010,06,23,08,58,16.90
2010,06,23,08,59,16.80
2010,06,23,09,00,16.80
2010,06,23,09,01,16.80
2010,06,23,09,02,16.80
2010,06,23,09,03,16.80
2010,06,23,09,04,16.90
2010,06,23,09,05,16.90
2010,06,23,09,06,16.90
2010,06,23,09,07,16.90
2010,06,23,09,08,16.90
2010,06,23,09,09,16.90
2010,06,23,09,10,17.00
2010,06,23,09,11,17.00
2010,06,23,09,12,17.00
2010,06,23,09,13,17.10
2010,06,23,09,14,17.10
2010,06,23,09,15,17.10
2010,06,23,09,16,17.00
2010,06,23,09,17,17.00
2010,06,23,09,18,17.00
2010,06,23,09,19,17.10
2010,06,23,09,20,17.10
2010,06,23,09,21,17.10
2010,06,23,09,22,17.20
2010,06,23,09,23,17.30
2010,06,23,09,24,17.30
2010,06,23,09,25,17.40
2010,06,23,09,26,17.50
2010,06,23,09,27,17.60
2010,06,23,09,28,17.70
2010,06,23,09,29,17.80
2010,06,23,09,30,17.90
2010,06,23,09,31,17.90
2010,06,23,09,32,18.00
2010,06,23,09,33,18.10
2010,06,23,09,34,18.20
2010,06,23,09,35,18.20
2010,06,23,09,36,18.30
2010,06,23,09,37,18.30
2010,06,23,09,38,18.40
2010,06,23,09,39,18.40
2010,06,23,09,40,18.50
2010,06,23,09,41,18.60
2010,06,23,09,42,18.70
2010,06,23,09,43,18.80
2010,06,23,09,44,18.90
2010,06,23,09,45,18.90
2010,06,23,09,46,18.90
2010,06,23,09,47,19.10
2010,06,23,09,48,19.10
2010,06,23,09,49,19.20
2010,06,23,09,50,19.20
2010,06,23,09,51,19.20
2010,06,23,09,52,19.30
2010,06,23,09,53,19.30
2010,06,23,09,54,19.40
2010,06,23,09,55,19.50
2010,06,23,09,56,19.60
2010,06,23,09,57,19.80
2010,06,23,09,58,19.90
2010,06,23,09,59,20.10
2010,06,23,10,00,20.30
2010,06,23,10,01,20.40
2010,06,23,10,02,20.50
2010,06,23,10,03,20.60
2010,06,23,10,04,20.60
2010,06,23,10,05,20.70
2010,06,23,10,06,20.70
2010,06,23,10,07,20.70
2010,06,23,10,08,20.80
2010,06,23,10,09,20.80
2010,06,23,10,10,20.80
2010,06,23,10,11,20.80
2010,06,23,10,12,20.80
2010,06,23,10,13,20.80
2010,06,23,10,14,20.80
2010,06,23,10,15,20.80
2010,06,23,10,16,20.70
2010,06,23,10,17,20.70
2010,06,23,10,18,20.70
2010,06,23,10,19,20.80
2010,06,23,10,20,20.80
2010,06,23,10,21,20.80
2010,06,23,10,22,20.80
2010,06,23,10,23,20.90
2010,06,23,10,24,21.00
2010,06,23,10,25,21.00
2010,06,23,10,26,21.10
2010,06,23,10,27,21.20
2010,06,23,10,28,21.20
2010,06,23,10,29,21.30
2010,06,23,10,30,21.30
2010,06,23,10,31,21.40
2010,06,23,10,32,21.40
2010,06,23,10,33,21.40
2010,06,23,10,34,21.50
2010,06,23,10,35,21.60
2010,06,23,10,36,21.60
2010,06,23,10,37,21.60
2010,06,23,10,38,21.60
2010,06,23,10,39,21.60
2010,06,23,10,40,21.60
2010,06,23,10,41,21.60
2010,06,23,10,42,21.60
2010,06,23,10,43,21.60
2010,06,23,10,44,21.60
2010,06,23,10,45,21.60
2010,06,23,10,46,21.60
2010,06,23,10,47,21.60
2010,06,23,10,48,21.80
2010,06,23,10,49,21.90
2010,06,23,10,50,21.90
2010,06,23,10,51,21.70
2010,06,23,10,52,21.50
2010,06,23,10,53,21.30
2010,06,23,10,54,21.30
2010,06,23,10,55,21.20
2010,06,23,10,56,21.20
2010,06,23,10,57,21.30
2010,06,23,10,58,21.30
2010,06,23,10,59,21.20
2010,06,23,11,00,21.20
2010,06,23,11,01,21.20
2010,06,23,11,02,21.20
2010,06,23,11,03,21.10
2010,06,23,11,04,20.90
2010,06,23,11,05,20.90
2010,06,23,11,06,20.80
2010,06,23,11,07,20.80
2010,06,23,11,08,20.80
2010,06,23,11,09,20.80
2010,06,23,11,10,20.80
2010,06,23,11,11,20.90
2010,06,23,11,12,21.00
2010,06,23,11,13,21.10
2010,06,23,11,14,21.20
2010,06,23,11,15,21.30
2010,06,23,11,16,21.40
2010,06,23,11,17,21.60
2010,06,23,11,18,21.70
2010,06,23,11,19,21.80
2010,06,23,11,20,22.00
2010,06,23,11,21,22.10
2010,06,23,11,22,22.20
2010,06,23,11,23,22.40
2010,06,23,11,24,22.40
2010,06,23,11,25,22.40
2010,06,23,11,26,22.40
2010,06,23,11,27,22.40
2010,06,23,11,28,22.40
2010,06,23,11,29,22.40
2010,06,23,11,30,22.50
2010,06,23,11,31,22.40
2010,06,23,11,32,22.30
2010,06,23,11,33,22.40
2010,06,23,11,34,22.50
2010,06,23,11,35,22.60
2010,06,23,11,36,22.80
2010,06,23,11,37,22.80
2010,06,23,11,38,22.80
2010,06,23,11,39,22.70
2010,06,23,11,40,22.70
2010,06,23,11,41,22.70
2010,06,23,11,42,22.70
2010,06,23,11,43,22.80
2010,06,23,11,44,22.90
2010,06,23,11,45,23.10
2010,06,23,11,46,23.20
2010,06,23,11,47,23.30
2010,06,23,11,48,23.30
2010,06,23,11,49,23.30
2010,06,23,11,50,23.30
2010,06,23,11,51,23.20
2010,06,23,11,52,23.20
2010,06,23,11,53,23.20
2010,06,23,11,54,23.20
2010,06,23,11,55,23.20
2010,06,23,11,56,23.20
2010,06,23,11,57,23.20
2010,06,23,11,58,23.20
2010,06,23,11,59,23.20
2010,06,23,12,00,23.20
2010,06,23,12,01,23.20
2010,06,23,12,02,23.20
2010,06,23,12,03,23.10
2010,06,23,12,04,22.90
2010,06,23,12,05,22.80
2010,06,23,12,06,22.70
2010,06,23,12,07,22.70
2010,06,23,12,08,22.70
2010,06,23,12,09,22.70
2010,06,23,12,10,22.60
2010,06,23,12,11,22.50
2010,06,23,12,12,22.60
2010,06,23,12,13,22.50
2010,06,23,12,14,22.50
2010,06,23,12,15,22.50
2010,06,23,12,16,22.40
2010,06,23,12,17,22.50
2010,06,23,12,18,22.50
2010,06,23,12,19,22.70
2010,06,23,12,20,22.80
2010,06,23,12,21,22.90
2010,06,23,12,22,22.90
2010,06,23,12,23,22.90
2010,06,23,12,24,22.90
2010,06,23,12,25,22.90
2010,06,23,12,26,22.60
2010,06,23,12,27,22.40
2010,06,23,12,28,22.20
2010,06,23,12,29,22.10
2010,06,23,12,30,22.00
2010,06,23,12,31,21.90
2010,06,23,12,32,21.80
2010,06,23,12,33,21.80
2010,06,23,12,34,21.70
2010,06,23,12,35,21.60
2010,06,23,12,36,21.30
2010,06,23,12,37,21.00
2010,06,23,12,38,20.80
2010,06,23,12,39,20.90
2010,06,23,12,40,21.00
2010,06,23,12,41,21.00
2010,06,23,12,42,20.80
2010,06,23,12,43,20.60
2010,06,23,12,44,20.50
2010,06,23,12,45,20.40
2010,06,23,12,46,20.40
2010,06,23,12,47,20.40
2010,06,23,12,48,20.40
2010,06,23,12,49,20.40
2010,06,23,12,50,20.40
2010,06,23,12,51,20.40
2010,06,23,12,52,20.40
2010,06,23,12,53,20.50
2010,06,23,12,54,20.70
2010,06,23,12,55,20.70
2010,06,23,12,56,20.60
2010,06,23,12,57,20.70
2010,06,23,12,58,20.70
2010,06,23,12,59,20.70
2010,06,23,13,00,20.60
2010,06,23,13,01,20.50
2010,06,23,13,02,20.50
2010,06,23,13,03,20.50
2010,06,23,13,04,20.70
2010,06,23,13,05,20.80
2010,06,23,13,06,20.90
2010,06,23,13,07,20.90
2010,06,23,13,08,21.20
2010,06,23,13,09,21.40
2010,06,23,13,10,21.40
2010,06,23,13,11,21.30
2010,06,23,13,12,21.30
2010,06,23,13,13,21.30
2010,06,23,13,14,21.30
2010,06,23,13,15,21.30
2010,06,23,13,16,21.30
2010,06,23,13,17,21.30
2010,06,23,13,18,21.30
2010,06,23,13,19,21.30
2010,06,23,13,20,21.30
2010,06,23,13,21,21.30
2010,06,23,13,22,21.40
2010,06,23,13,23,21.50
2010,06,23,13,24,21.40
2010,06,23,13,25,21.30
2010,06,23,13,26,21.30
2010,06,23,13,27,21.30
2010,06,23,13,28,21.30
2010,06,23,13,29,21.30
2010,06,23,13,30,21.30
2010,06,23,13,31,21.30
2010,06,23,13,32,21.30
2010,06,23,13,33,21.30
2010,06,23,13,34,21.50
2010,06,23,13,35,21.60
2010,06,23,13,36,21.50
2010,06,23,13,37,21.60
2010,06,23,13,38,21.70
2010,06,23,13,39,21.90
2010,06,23,13,40,22.00
2010,06,23,13,41,22.10
2010,06,23,13,42,22.10
2010,06,23,13,43,22.10
2010,06,23,13,44,22.10
2010,06,23,13,45,22.20
2010,06,23,13,46,22.20
2010,06,23,13,47,22.20
2010,06,23,13,48,22.20
2010,06,23,13,49,22.30
2010,06,23,13,50,22.30
2010,06,23,13,51,22.20
2010,06,23,13,52,22.20
2010,06,23,13,53,22.30
2010,06,23,13,54,22.40
2010,06,23,13,55,22.40
2010,06,23,13,56,22.40
2010,06,23,13,57,22.50
2010,06,23,13,58,22.50
2010,06,23,13,59,22.50
2010,06,23,14,00,22.50
2010,06,23,14,01,22.50
2010,06,23,14,02,22.60
2010,06,23,14,03,22.60
2010,06,23,14,04,22.60
2010,06,23,14,05,22.70
2010,06,23,14,06,22.70
2010,06,23,14,07,22.80
2010,06,23,14,08,22.80
2010,06,23,14,09,22.90
2010,06,23,14,10,22.80
2010,06,23,14,11,22.80
2010,06,23,14,12,22.90
2010,06,23,14,13,22.90
2010,06,23,14,14,23.00
2010,06,23,14,15,23.10
2010,06,23,14,16,23.10
2010,06,23,14,17,23.00
2010,06,23,14,18,22.90
2010,06,23,14,19,22.90
2010,06,23,14,20,22.80
2010,06,23,14,21,22.80
2010,06,23,14,22,22.80
2010,06,23,14,23,22.80
2010,06,23,14,24,22.70
2010,06,23,14,25,22.60
2010,06,23,14,26,22.60
2010,06,23,14,27,22.60
2010,06,23,14,28,22.50
2010,06,23,14,29,22.40
2010,06,23,14,30,22.40
2010,06,23,14,31,22.40
2010,06,23,14,32,22.40
2010,06,23,14,33,22.40
2010,06,23,14,34,22.30
2010,06,23,14,35,22.30
2010,06,23,14,36,22.30
2010,06,23,14,37,22.30
2010,06,23,14,38,22.40
2010,06,23,14,39,22.40
2010,06,23,14,40,22.40
2010,06,23,14,41,22.60
2010,06,23,14,42,22.60
2010,06,23,14,43,22.50
2010,06,23,14,44,22.30
2010,06,23,14,45,22.10
2010,06,23,14,46,22.00
2010,06,23,14,47,22.00
2010,06,23,14,48,22.10
2010,06,23,14,49,22.10
2010,06,23,14,50,22.10
2010,06,23,14,51,22.10
2010,06,23,14,52,22.10
2010,06,23,14,53,22.10
2010,06,23,14,54,22.10
2010,06,23,14,55,22.10
2010,06,23,14,56,22.10
2010,06,23,14,57,22.10
2010,06,23,14,58,22.10
2010,06,23,14,59,22.00
2010,06,23,15,00,21.90
2010,06,23,15,01,21.80
2010,06,23,15,02,21.70
2010,06,23,15,03,21.70
2010,06,23,15,04,21.60
2010,06,23,15,05,21.60
2010,06,23,15,06,21.60
2010,06,23,15,07,21.60
2010,06,23,15,08,21.60
2010,06,23,15,09,21.60
2010,06,23,15,10,21.60
2010,06,23,15,11,21.70
2010,06,23,15,12,21.60
2010,06,23,15,13,21.60
2010,06,23,15,14,21.50
2010,06,23,15,15,21.40
2010,06,23,15,16,21.30
2010,06,23,15,17,21.20
2010,06,23,15,18,21.10
2010,06,23,15,19,21.10
2010,06,23,15,20,21.10
2010,06,23,15,21,21.10
2010,06,23,15,22,21.10
2010,06,23,15,23,21.10
2010,06,23,15,24,21.10
2010,06,23,15,25,21.00
2010,06,23,15,26,21.00
2010,06,23,15,27,21.00
2010,06,23,15,28,21.00
2010,06,23,15,29,21.10
2010,06,23,15,30,21.10
2010,06,23,15,31,21.20
2010,06,23,15,32,21.20
2010,06,23,15,33,21.30
2010,06,23,15,34,21.30
2010,06,23,15,35,21.30
2010,06,23,15,36,21.50
2010,06,23,15,37,21.60
2010,06,23,15,38,21.50
2010,06,23,15,39,21.40
2010,06,23,15,40,21.30
2010,06,23,15,41,21.30
2010,06,23,15,42,21.30
2010,06,23,15,43,21.30
2010,06,23,15,44,21.30
2010,06,23,15,45,21.20
2010,06,23,15,46,20.90
2010,06,23,15,47,20.80
2010,06,23,15,48,20.90
2010,06,23,15,49,20.90
2010,06,23,15,50,20.90
2010,06,23,15,51,20.80
2010,06,23,15,52,20.80
2010,06,23,15,53,20.70
2010,06,23,15,54,20.80
2010,06,23,15,55,21.00
2010,06,23,15,56,21.10
2010,06,23,15,57,21.10
2010,06,23,15,58,21.00
2010,06,23,15,59,20.90
2010,06,23,16,00,20.70
2010,06,23,16,01,20.70
2010,06,23,16,02,20.80
2010,06,23,16,03,20.80
2010,06,23,16,04,20.80
2010,06,23,16,05,20.80
2010,06,23,16,06,20.80
2010,06,23,16,07,20.80
2010,06,23,16,08,20.70
2010,06,23,16,09,20.70
2010,06,23,16,10,20.70
2010,06,23,16,11,20.70
2010,06,23,16,12,20.80
2010,06,23,16,13,20.90
2010,06,23,16,14,20.90
2010,06,23,16,15,21.00
2010,06,23,16,16,21.10
2010,06,23,16,17,21.10
2010,06,23,16,18,21.10
2010,06,23,16,19,21.10
2010,06,23,16,20,21.20
2010,06,23,16,21,21.30
2010,06,23,16,22,21.30
2010,06,23,16,23,21.30
2010,06,23,16,24,21.30
2010,06,23,16,25,21.30
2010,06,23,16,26,21.20
2010,06,23,16,27,21.00
2010,06,23,16,28,20.80
2010,06,23,16,29,20.70
2010,06,23,16,30,20.70
2010,06,23,16,31,20.70
2010,06,23,16,32,20.60
2010,06,23,16,33,20.60
2010,06,23,16,34,20.60
2010,06,23,16,35,20.50
2010,06,23,16,36,20.50
2010,06,23,16,37,20.40
2010,06,23,16,38,20.20
2010,06,23,16,39,20.20
2010,06,23,16,40,20.20
2010,06,23,16,41,20.20
2010,06,23,16,42,20.40
2010,06,23,16,43,20.50
2010,06,23,16,44,20.60
2010,06,23,16,45,20.60
2010,06,23,16,46,20.60
2010,06,23,16,47,20.60
2010,06,23,16,48,20.60
2010,06,23,16,49,20.70
2010,06,23,16,50,20.80
2010,06,23,16,51,20.80
2010,06,23,16,52,20.90
2010,06,23,16,53,21.00
2010,06,23,16,54,21.00
2010,06,23,16,55,20.90
2010,06,23,16,56,20.90
2010,06,23,16,57,20.90
2010,06,23,16,58,20.80
2010,06,23,16,59,20.70
2010,06,23,17,00,20.50
2010,06,23,17,01,20.40
2010,06,23,17,02,20.40
2010,06,23,17,03,20.30
2010,06,23,17,04,20.20
2010,06,23,17,05,20.20
2010,06,23,17,06,20.10
2010,06,23,17,07,20.00
2010,06,23,17,08,19.90
2010,06,23,17,09,19.80
2010,06,23,17,10,19.80
2010,06,23,17,11,19.90
2010,06,23,17,12,19.90
2010,06,23,17,13,20.10
2010,06,23,17,14,20.10
2010,06,23,17,15,20.10
2010,06,23,17,16,20.00
2010,06,23,17,17,19.90
2010,06,23,17,18,19.90
2010,06,23,17,19,20.00